Погода в Эргли

Латвия     56°53′51″N   25°38′18″E
темп.,
°C
ветер,
м/с
пор.,
м/с
влажн.,
%
обл.,
%
осадки,
мм/ч
давл.,
гПа
погр.,
м
1 августа, вс
вс100:00+16ю298690 0.1 1005211
03:00+15ююз31097100 1.4 1004321
06:00+14ююз379998 0.2 1004227
09:00+16ююз410904 0.3 1003461
12:00+22юз6105485 0.2 10041752
15:00+22зюз6105835 0.8 10051567
18:00+23юз485197 0.0 10052130
21:00+17юз31084100 0.3 1006375
2 августа, пн
пн200:00+15юз2392100 0.1 100675
03:00+14ю2798100 0.5 1005241
06:00+14ю2598100 0.3 1005282
09:00+14ю1197100 0.4 1003139
12:00+15юз1296100 0.1 1003198
15:00+15зюз2696100 1.4 1002284
18:00+16зюз2592100 1.6 1003197
21:00+14з39955 2.5 1003275
3 августа, вт
вт300:00+11зюз259750 0.0 1004107
03:00+10юз39988 0.0 1005203
06:00+10юз389936 0.0 1006216
09:00+14зюз369249 0.0 1006415
12:00+15зсз479125 1.6 1008777
15:00+20зсз574333 2.3 10082062
18:00+18зсз57434 0.0 10101864
21:00+13зсз22745 0.0 101223
4 августа, ср
ср400:00+10з118113 0.0 101311
03:00+10ююз22785 0.0 101414
06:00+10ю2378100 0.0 101556
09:00+11вюв2295100 1.6 101551
12:00+12юв249585 1.0 1015150
15:00+20ююз3554100 1.1 10141592
18:00+19юз1362100 0.2 1014154
21:00+15юз41081100 0.7 1015370
5 августа, чт
чт500:00+12в118998 1.3 101613
03:00+12ю119729 1.3 101623
06:00+11ююв119922 0.0 101628
09:00+15ююв129098 0.0 1016297
12:00+19юв227015 0.4 1015976
15:00+22вюв224979 1.1 10141824
18:00+18юв257882 0.6 1013179
21:00+15в3892100 1.3 1012171